Regional Weather Roundup
Issued by NWS

Home | Current Version | Previous Version | Graphics & Text | Print | Product List | Glossary Off
Versions: 1 2 3 4 5 6 7 8 9 10 11 12 13 14 15 16 17 18 19 20 21 22 23 24 25 26 27 28 29 30 31 32 33 34 35 36 37 38 39 40 41 42 43 44 45 46 47 48 49 50

000
ASUS43 KOAX 050010
RWRNE

WEATHER ROUNDUP FOR NEBRASKA
NATIONAL WEATHER SERVICE OMAHA NE
700 PM CDT FRI SEP 04 2015

NOTES: SATELLITE DATA IS BEING USED TO AUGMENT CLOUD COVER ABOVE
       12000 FEET.
       "FAIR" INDICATES FEW OR NO CLOUDS BELOW 12,000 FEET WITH NO
       SIGNIFICANT WEATHER AND/OR OBSTRUCTIONS TO VISIBILITY.

  * THESE STATIONS DO NOT REPORT WEATHER SUCH AS RAIN...SNOW OR FOG.

NEZ001>004-019>022-054>056-050100-
NEBRASKA PANHANDLE

CITY           SKY/WX    TMP DP  RH WIND       PRES   REMARKS
SCOTTSBLUFF    CLOUDY    82  51  34 E6        29.86S
6HR MIN TEMP:  82; 6HR MAX TEMP:  93;

ALLIANCE       MOSUNNY   89  40  17 SW7       29.85F
6HR MIN TEMP:  86; 6HR MAX TEMP:  94;

CHADRON        PTSUNNY   88  51  28 SE8       29.80S
6HR MIN TEMP:  87; 6HR MAX TEMP:  94;

KIMBALL        CLOUDY    82  37  19 S7        29.92S
SIDNEY         MOSUNNY   90  41  18 S8        29.90S
6HR MIN TEMP:  89; 6HR MAX TEMP:  95;

$$

NEZ057>060-069>072-079>082-050100-
SOUTHWEST NEBRASKA

CITY           SKY/WX    TMP DP  RH WIND       PRES   REMARKS
NORTH PLATTE   MOSUNNY   87  58  37 S6        29.82S
6HR MIN TEMP:  83; 6HR MAX TEMP:  93;

IMPERIAL       PTSUNNY   91  50  24 NE5       29.84F
6HR MIN TEMP:  83; 6HR MAX TEMP:  94;

LEXINGTON      SUNNY     89  65  44 S3        29.81S HX  91
MCCOOK         SUNNY     95  56  26 SE10      29.80S HX  93
6HR MIN TEMP:  87; 6HR MAX TEMP:  98;

OGALLALA       PTSUNNY   90  55  30 SE7       29.85R
$$

NEZ005>010-023>029-035>040-094-050100-
NORTH CENTRAL NEBRASKA

CITY           SKY/WX    TMP DP  RH WIND       PRES   REMARKS
VALENTINE      PTSUNNY   90  56  31 SE7       29.79S
6HR MIN TEMP:  89; 6HR MAX TEMP:  96;

AINSWORTH      SUNNY     88  65  46 SE5       29.81S HX  90
BROKEN BOW     SUNNY     90  63  40 S9        29.82S HX  91
6HR MIN TEMP:  85; 6HR MAX TEMP:  92;

O`NEILL        MOSUNNY   89  64  43 S12       29.81S HX  90
ORD            SUNNY     89  63  41 S8        29.79S HX  90
6HR MIN TEMP:  86; 6HR MAX TEMP:  93;

THEDFORD       MOSUNNY   91  56  31 S8        29.84R
$$

NEZ041-046>049-061>064-073>077-083>087-050100-
SOUTH CENTRAL NEBRASKA

CITY           SKY/WX    TMP DP  RH WIND       PRES   REMARKS
GRAND ISLAND   FAIR      89  68  49 SE15      29.81S HX  93
6HR MIN TEMP:  88; 6HR MAX TEMP:  95;

AURORA         FAIR      89  66  46 S15G23    29.82S HX  91
HASTINGS       FAIR      92  63  38 S15G23    29.81S HX  93
6HR MIN TEMP:  88; 6HR MAX TEMP:  96;

HEBRON         FAIR      88  63  42 S12G17    29.84S
HOLDREGE       FAIR      92  56  30 S7        29.81S HX  90
KEARNEY *      FAIR      91  61  35 S12       29.80S HX  91
YORK           FAIR      88  68  51 S13G21    29.83S HX  91
$$

NEZ011>018-030>034-042>045-050100-
NORTHEAST NEBRASKA

CITY           SKY/WX    TMP DP  RH WIND       PRES   REMARKS
NORFOLK        FAIR      86  71  60 SE12      29.82S HX  91
6HR MIN TEMP:  86; 6HR MAX TEMP:  91;

ALBION         FAIR      85  69  58 SE9       29.81S
BLAIR          FAIR      84  67  57 SE9       29.87S
COLUMBUS *     FAIR      84  68  58 SE9       29.82S
FREMONT        FAIR      86  68  55 SE9       29.85S
TEKAMAH        FAIR      83  72  69 SE12      29.85R
6HR MIN TEMP:  83; 6HR MAX TEMP:  89;

WAYNE          FAIR      83  72  68 SE12      29.84S
$$

NEZ050>053-065>068-078-088>093-050100-
SOUTHEAST NEBRASKA

CITY           SKY/WX    TMP DP  RH WIND       PRES   REMARKS
LINCOLN        FAIR      88  65  46 S17       29.85R HX  90
6HR MIN TEMP:  88; 6HR MAX TEMP:  92;

OMAHA EPPLEY   MOCLDY    86  70  58 SE20      29.86R HX  90
6HR MIN TEMP:  85; 6HR MAX TEMP:  90;

BEATRICE       FAIR      88  66  48 S10       29.87R HX  90
FALLS CITY     FAIR      88  67  49 S14G23    29.89R HX  91
6HR MIN TEMP:  88; 6HR MAX TEMP:  93;

NEBRASKA CITY  FAIR      85  61  45 S12       29.89R
PLATTSMOUTH    FAIR      83  65  54 SE8       29.88R
$$

NEZ044-045-051>053-067-050100-
OMAHA AREA

CITY           SKY/WX    TMP DP  RH WIND       PRES   REMARKS
OMAHA EPPLEY   MOCLDY    86  70  58 SE20      29.86R HX  90
6HR MIN TEMP:  85; 6HR MAX TEMP:  90;

BLAIR          FAIR      84  67  57 SE9       29.87S
FREMONT        FAIR      86  68  55 SE9       29.85S
MILLARD        FAIR      86  72  63 SE9       29.86R HX  92
OFFUTT AFB     FAIR      85  72  65 SE9       29.86R HX  91
PLATTSMOUTH    FAIR      83  65  54 SE8       29.88R
WAHOO          FAIR      84  72  66 SE6       29.85S HX  90
$$




USA.gov is the U.S. government's official web portal to all federal, state and local government web resources and services.